Location: Dugenta
(41.1333°N, 14.4500°E)
Time: 15:28:25
(UTC+00:00)

Cosmos 2333 Rocket - Visible Passes

Search period start: 13 June 2021 00:00
Search period end: 23 June 2021 00:00
Orbit: 839 x 863 km, 70.8° (Epoch: 12 June)

Date Brightness Start Highest point End Pass type
(mag) Time Alt. Az. Time Alt. Az. Time Alt. Az.
13 Jun 2.1 21:47:24 51° S 21:48:54 79° ESE 21:54:40 10° NNE visible
13 Jun 4.5 23:30:02 10° W 23:33:51 18° NW 23:37:40 10° N visible
14 Jun 2.1 21:34:43 44° S 21:36:38 79° ESE 21:42:23 10° NNE visible
14 Jun 4.5 23:17:47 10° W 23:21:35 18° NW 23:25:24 10° N visible
15 Jun 2.1 21:21:56 36° SSW 21:24:22 79° ESE 21:30:07 10° NNE visible
15 Jun 4.5 23:05:31 10° W 23:09:19 18° NW 23:13:07 10° N visible
16 Jun 2.1 21:09:00 29° SSW 21:12:06 79° ESE 21:17:51 10° NNE visible
16 Jun 4.6 22:53:15 10° W 22:57:03 18° NW 23:00:51 10° N visible
17 Jun 2.1 20:55:53 21° SSW 20:59:50 79° ESE 21:05:35 10° NNE visible
17 Jun 4.6 22:40:59 10° W 22:44:47 18° NW 22:48:35 10° N visible
18 Jun 2.1 20:42:31 14° SSW 20:47:35 79° ESE 20:53:19 10° NNE visible
18 Jun 4.7 22:28:43 10° W 22:32:31 18° NW 22:36:20 10° N visible
19 Jun 2.1 20:29:34 10° SSW 20:35:18 79° ESE 20:41:04 10° NNE visible
19 Jun 4.7 22:16:28 10° W 22:20:16 18° NW 22:24:03 10° N visible
20 Jun 2.2 20:17:18 10° SSW 20:23:02 79° ESE 20:28:48 10° NNE visible
20 Jun 4.8 22:04:13 10° W 22:08:00 18° NW 22:11:47 10° N visible
21 Jun 2.2 20:05:03 10° SSW 20:10:47 79° ESE 20:16:32 10° NNE visible
21 Jun 4.8 21:51:57 10° W 21:55:44 18° NW 21:59:31 10° N visible
22 Jun 2.2 19:52:46 10° SSW 19:58:31 79° ESE 20:04:16 10° NNE visible
22 Jun 4.9 21:39:41 10° W 21:43:28 18° NW 21:47:16 10° N visible
